Location: Zagreb
(45.8000°N, 16.0000°E)
Time: 00:28:41
(UTC+01:00)

Transit 2A Rocket - Pass Details

Date: 08 October 2020
Orbit: 586 x 916 km, 66.7° (Epoch: 28 October)

Event Time Altitude Azimuth Distance (km) Brightness Sun altitude
Rises 22:00:03 0° 330° (NNW) 3,453 9.2 -37.1°
Reaches altitude 10° 22:03:28 10° 349° (N) 2,457 8.1 -37.6°
Enters shadow 22:04:58 14° 3° (N) 2,125 7.5 -37.8°
Maximum altitude 22:07:15 18° 31° (NNE) 1,881 - -38.1°
Drops below altitude 10° 22:10:51 10° 74° (ENE) 2,302 - -38.6°
Sets 22:13:54 0° 94° (E) 3,155 - -39.0°
